Printer-friendly version

IAU Minor Planet Center

Minor Planet Center

MPEC 2005-E35 : COMET C/2005 E1 (TUBBIOLO)

The following Minor Planet Electronic Circular may be linked-to from your own Web pages, but must not otherwise be redistributed electronically.


Read MPEC 2005-E34 Read MPEC 2005-E36


M.P.E.C. 2005-E35                                Issued 2005 Mar. 7, 18:47 UT

     The Minor Planet Electronic Circulars contain information on unusual
         minor planets and routine data on comets.  They are published
   on behalf of Commission 20 of the International Astronomical Union by the
          Minor Planet Center, Smithsonian Astrophysical Observatory,
                          Cambridge, MA 02138, U.S.A.

                  Supported in part by the Brinson Foundation
             Prepared using the Tamkin Foundation Computer Network

                              MPC@CFA.HARVARD.EDU
          URL http://cfa-www.harvard.edu/iau/mpc.html  ISSN 1523-6714

                          COMET C/2005 E1 (TUBBIOLO)

Observations:
    CK05E010  C2005 03 03.25502 11 48 54.36 +02 34 40.5          20.9 T EE035691
    CK05E010  C2005 03 03.28121 11 48 53.62 +02 34 43.4          20.9 T EE035691
    CK05E010  C2005 03 03.30665 11 48 52.93 +02 34 47.3          20.8 T EE035691
    CK05E010  C2005 03 04.32680 11 48 24.54 +02 36 59.5          20.8 N EE035H36
    CK05E010  C2005 03 04.35660 11 48 23.64 +02 37 04.9          20.3 N EE035H36
    CK05E010  C2005 03 04.38348 11 48 23.12 +02 37 07.4                 EE035F65
    CK05E010  C2005 03 04.38654 11 48 23.06 +02 37 07.7                 EE035F65
    CK05E010  C2005 03 04.38956 11 48 22.97 +02 37 08.1                 EE035F65
    CK05E010  C2005 03 04.39281 11 48 22.86 +02 37 08.9                 EE035F65
    CK05E010  C2005 03 04.40988 11 48 22.27 +02 37 10.8          20.9 T EE035691
    CK05E010  C2005 03 04.43070 11 48 21.65 +02 37 13.6          21.1 T EE035691
    CK05E010  C2005 03 04.45036 11 48 21.16 +02 37 15.9          20.8 T EE035691
    CK05E010  C2005 03 04.90581 11 48 08.48 +02 38 16.2                 EE035246
    CK05E010  C2005 03 04.90873 11 48 08.26 +02 38 16.6                 EE035246
    CK05E010  C2005 03 04.91709 11 48 08.14 +02 38 17.2                 EE035246
    CK05E010  C2005 03 07.24115 11 47 02.25 +02 43 25.7          20.4 N EE035850
    CK05E010  C2005 03 07.33470 11 46 59.59 +02 43 38.1          19.6 N EE035850

Observer details:
246 Klet Observatory-KLENOT.  Observers M. Tichy, J. Ticha.  Measurer M. Tichy.
    1.06-m KLENOT Telescope + CCD.
691 Steward Observatory, Kitt Peak.  Observer A. F. Tubbiolo.  0.9-m f/3
    reflector + CCD.
850 Cordell-Lorenz Observatory, Sewanee.  Observer D. T. Durig.  0.30-m f/5.86
    Schmidt-Cassegrain + CCD.
F65 Haleakala-Faulkes Telescope North.  Observers A. Fitzsimmons, S. C. Lowry,
    C. Snodgrass.  2.0-m f/10.0 reflector + CCD.
H36 Sandlot Observatory, Scranton.  Observer G. Hug.  0.3-m f/6
    Schmidt-Cassegrain + CCD.

Orbital elements:
    C/2005 E1 (Tubbiolo)
T 2006 Nov. 15.867 TT                                   MPC
q   1.66913              (2000.0)            P               Q
                   Peri.  296.728       +0.417884       +0.908432
                   Node   357.877       -0.690063       +0.309437
e   1.0            Incl.   17.439       -0.590920       +0.281068
From 17 observations 2005 Mar. 3-7.

Ephemeris:
    C/2005 E1 (Tubbiolo)
Date    TT    R. A. (2000) Decl.     Delta      r     Elong.  Phase   m1    m2
2005 03 01    11 49.93   +02 29.9    5.807    6.764   163.7     2.4  20.1
2005 03 11    11 45.22   +02 51.9    5.693    6.683   174.8     0.8  20.0
2005 03 21    11 40.24   +03 15.0    5.610    6.601   173.7     1.0  19.9
2005 03 31    11 35.24   +03 37.4    5.559    6.519   162.6     2.6  19.9
2005 04 10    11 30.51   +03 57.6    5.539    6.437   151.5     4.3  19.8
2005 04 20    11 26.28   +04 14.2    5.545    6.354   140.6     5.8  19.8
2005 04 30    11 22.78   +04 26.0    5.576    6.271   130.0     7.1  19.7

Brian G. Marsden             (C) Copyright 2005 MPC           M.P.E.C. 2005-E35

Read MPEC 2005-E34 Read MPEC 2005-E36


Our Web policy. Index to the CBAT/MPC/ICQ pages.


Valid HTML 4.01!